Regional Weather Roundup
Issued by NWS Cleveland, OH

Home | Current Version | Previous Version | Graphics & Text | Print | Product List | Glossary On
Versions: 1 2 3 4 5 6 7 8 9 10 11 12 13 14 15 16 17 18 19 20 21 22 23 24 25 26 27 28 29 30 31 32 33 34 35 36 37 38 39 40 41 42 43 44 45 46 47 48 49 50
069
ASUS41 KCLE 251912
RWRCLE
OHIO REGIONAL WEATHER ROUNDUP
NATIONAL WEATHER SERVICE WILMINGTON, OH
300 PM EDT THU AUG 25 2016

NOTE: "FAIR" INDICATES FEW OR NO CLOUDS BELOW 12,000 FEET WITH NO
SIGNIFICANT WEATHER AND/OR OBSTRUCTIONS TO VISIBILITY.

OHZ001>008-015>018-024>027-034-035-043-044-252000-
   NORTHWEST OHIO

CITY           SKY/WX    TMP DP  RH WIND       PRES   REMARKS
DEFIANCE       FAIR      86  70  58 VRB7G18   30.01S HX  90
FINDLAY        FAIR      89  69  51 W17G23    30.00F HX  93
TOLEDO EXPRESS FAIR      86  70  58 W21       29.99S HX  90
TOLEDO EXEC    FAIR      88  73  61 W18G24    29.99F HX  95
LIMA           FAIR      87  72  60 SW15      30.04S HX  93
$$

OHZ009>014-019>023-028>033-038-089-252000-
   NORTHEAST OHIO

CITY           SKY/WX    TMP DP  RH WIND       PRES   REMARKS
CLE-HOPKINS    FAIR      90  68  48 SW13G21   30.00F HX  94
CLE-LAKEFRONT  FAIR      91  69  48 S15       29.96F HX  96
CUY CO. ARPT   MOSUNNY   90  75  62 SW16      30.00F HX 100
LORAIN-ELYRIA  FAIR      87  73  62 SW14      30.00F HX  94
ASHTABULA      PTSUNNY   83  74  74 S10       30.01F
AKRON-CANTON   FAIR      88  69  53 SW14      30.04F HX  92
WOOSTER        FAIR      86  73  65 SW13G21   30.03F HX  93
MANSFIELD      FAIR      87  73  62 SW9G22    30.05S HX  94
YOUNGSTOWN     PTSUNNY   85  71  63 SW7       30.03F HX  90
$$

OHZ042-051>053-060>062-070>072-077>081-252000-
  SOUTHWEST OHIO

CITY           SKY/WX    TMP DP  RH WIND       PRES   REMARKS
CINC-COVINGTON PTSUNNY   89  74  60 SW12      30.09S HX  98
CINC-LUNKEN    PTSUNNY   90  75  61 SW12      30.06F HX 100
HAMILTON       PTSUNNY   88  74  63 W9        30.07F HX  96
DAYTON         FAIR      88  73  61 SW16      30.07F HX  95
WRIGHT-PAT AFB FAIR      89  76  66 SW17      30.05F HX 100
DAYTON GENERAL PTSUNNY   86  73  65 W13       30.07F HX  93
WILMINGTON     PTSUNNY   88  75  65 SW14      30.07F HX  97
$$

OHZ036-037-039>041-045>050-054>059-063>069-073>076-082>088-252000-
  CENTRAL AND SOUTHEAST OHIO

CITY           SKY/WX    TMP DP  RH WIND       PRES   REMARKS
COLUMBUS       FAIR      85  75  72 SW9       30.04F HX  93
OSU AIRPORT    PTSUNNY   88  76  67 SW12      30.05F HX  99
BOLTON FIELD   PTSUNNY   84  77  79 SW12      30.06F HX  94
RICKENBACK AFB FAIR      87  77  71 SW15      30.05S HX  98
NEWARK         FAIR      86  75  69 SW12      30.04F HX  95
MARION         PTSUNNY   86  73  65 SW12      30.04F HX  93
LANCASTER      FAIR      87  76  69 W12       30.06F HX  97
ZANESVILLE     FAIR      88  74  63 SW8       30.05F HX  96
NEW PHILLY     FAIR      91  72  53 W9        30.04F HX  98
$$




USA.gov is the U.S. government's official web portal to all federal, state and local government web resources and services.